TimeCDT,TemperatureF,Dew PointF,Humidity,Sea Level PressureIn,VisibilityMPH,Wind Direction,Wind SpeedMPH,Gust SpeedMPH,PrecipitationIn,Events,Conditions,WindDirDegrees,DateUTC
12:54 AM,45.0,37.9,76,30.30,10.0,Calm,Calm,-,N/A,,Overcast,0,2014-04-18 05:54:00
1:54 AM,42.1,36.0,79,30.29,10.0,Calm,Calm,-,N/A,,Clear,0,2014-04-18 06:54:00
2:54 AM,39.0,34.0,82,30.29,9.0,NNW,4.6,-,N/A,,Clear,340,2014-04-18 07:54:00
3:54 AM,39.0,33.1,79,30.29,9.0,NW,3.5,-,N/A,,Clear,320,2014-04-18 08:54:00
4:54 AM,37.9,33.1,83,30.30,9.0,NW,4.6,-,N/A,,Clear,320,2014-04-18 09:54:00
5:54 AM,37.9,32.0,79,30.31,10.0,NNE,5.8,-,N/A,,Clear,20,2014-04-18 10:54:00
6:54 AM,36.0,32.0,86,30.33,7.0,NNE,5.8,-,N/A,,Clear,30,2014-04-18 11:54:00
7:54 AM,42.1,36.0,79,30.34,8.0,NE,6.9,-,N/A,,Clear,40,2014-04-18 12:54:00
8:54 AM,48.0,37.9,68,30.33,10.0,NE,6.9,-,N/A,,Clear,40,2014-04-18 13:54:00
9:54 AM,53.1,36.0,52,30.34,10.0,NE,4.6,-,N/A,,Clear,40,2014-04-18 14:54:00
10:54 AM,55.0,36.0,49,30.35,10.0,North,3.5,-,N/A,,Clear,10,2014-04-18 15:54:00
11:54 AM,57.9,37.0,46,30.35,10.0,Variable,5.8,-,N/A,,Clear,0,2014-04-18 16:54:00
12:54 PM,60.1,36.0,41,30.32,10.0,ENE,4.6,-,N/A,,Clear,70,2014-04-18 17:54:00
1:54 PM,61.0,35.1,38,30.31,10.0,Variable,3.5,-,N/A,,Clear,0,2014-04-18 18:54:00
2:54 PM,64.0,36.0,35,30.28,10.0,North,6.9,-,N/A,,Clear,350,2014-04-18 19:54:00
3:54 PM,64.9,34.0,32,30.26,10.0,Calm,Calm,-,N/A,,Clear,0,2014-04-18 20:54:00
4:54 PM,66.0,33.1,29,30.24,10.0,Calm,Calm,-,N/A,,Clear,0,2014-04-18 21:54:00
5:54 PM,66.0,33.1,29,30.23,10.0,West,3.5,-,N/A,,Clear,270,2014-04-18 22:54:00
6:54 PM,64.9,34.0,32,30.22,10.0,NE,5.8,-,N/A,,Clear,40,2014-04-18 23:54:00
7:54 PM,60.1,33.1,36,30.22,10.0,NE,5.8,-,N/A,,Clear,40,2014-04-19 00:54:00
8:54 PM,57.9,30.9,36,30.23,10.0,ENE,5.8,-,N/A,,Clear,70,2014-04-19 01:54:00
9:54 PM,57.0,28.9,34,30.24,10.0,East,5.8,-,N/A,,Clear,90,2014-04-19 02:54:00
10:54 PM,55.9,28.0,34,30.24,10.0,East,9.2,-,N/A,,Clear,100,2014-04-19 03:54:00
11:54 PM,53.1,28.0,38,30.25,10.0,East,8.1,-,N/A,,Clear,100,2014-04-19 04:54:00